Dennison, MN

6:44 AM CST on February 27, 2017 (GMT -0600)
Stanton

Weather History for KSYN - May, 2014

Change the Weather History Date:

Thursday, May 22, 2014

  Actual Average (KLVN) Record (KLVN)
Temperature  
Mean Temperature 56 °F -  
Max Temperature 70 °F 72 °F 92 °F (1964)
Min Temperature 41 °F 50 °F 31 °F (1963)
Degree Days  
Heating Degree Days 10    
Growing Degree Days 6 (Base 50)    
Moisture  
Dew Point 44 °F    
Average Humidity 65    
Maximum Humidity 93    
Minimum Humidity 34    
Precipitation  
Precipitation 0.00 in - - ()
Sea Level Pressure  
Sea Level Pressure 30.16 in    
Wind  
Wind Speed 3 mph (NNW)    
Max Wind Speed 13 mph    
Max Gust Speed 17 mph    
Visibility 9 miles    
Events      
Averages and records for this station are not official NWS values.
T = Trace of Precipitation, MM = Missing Value Source: NWS Daily Summary

Daily Weather History Graph

Daily Weather History Graph

Search for Another Location

Airport or City:

Trip Planner

Search our weather history database for the weather conditions in past years. The results will help you decide how hot, cold, wet, or windy it might be!

Date:

Astronomy

May. 22, 2014 Rise Set
Actual Time 5:37 AM CDT 8:40 PM CDT
Civil Twilight 5:02 AM CDT 9:15 PM CDT
Nautical Twilight 4:18 AM CDT 9:59 PM CDT
Astronomical Twilight 3:25 AM CDT 10:53 PM CDT
Moon 2:12 AM CDT (5/22) 2:14 PM CDT (5/22)
Length of Visible Light 16h 12m
Length of Day
15h 02m
Last Quarter, 37% of the Moon is Illuminated
May 22
Last Quarter
May 28
New
Jun 5
First Quarter
Jun 12
Full
Jun 19
Last Quarter

Hourly Weather History & Observations

Time (CDT) Temp. Windchill Dew Point Humidity Pressure Visibility Wind Dir Wind Speed Gust Speed Precip Events Conditions
12:13 AM 51.3 °F - 44.6 °F 78% 30.12 in 10.0 mi West 4.6 mph - N/A   Clear
12:32 AM 50.9 °F - 44.8 °F 80% 30.12 in 10.0 mi Calm Calm - N/A   Clear
12:52 AM 50.7 °F - 44.6 °F 80% 30.11 in 10.0 mi Calm Calm - N/A   Clear
1:13 AM 49.1 °F - 43.5 °F 81% 30.13 in 10.0 mi Calm Calm - N/A   Clear
1:32 AM 49.1 °F - 44.1 °F 83% 30.12 in 10.0 mi Calm Calm - N/A   Clear
1:52 AM 49.5 °F - 44.4 °F 83% 30.12 in 10.0 mi Calm Calm - N/A   Clear
2:13 AM 48.4 °F - 44.1 °F 85% 30.12 in 10.0 mi Calm Calm - N/A   Clear
2:32 AM 48.2 °F - 43.5 °F 84% 30.12 in 10.0 mi Calm Calm - N/A   Clear
2:52 AM 46.4 °F - 42.3 °F 85% 30.13 in 10.0 mi Calm Calm - N/A   Clear
3:12 AM 46.2 °F - 43.2 °F 89% 30.13 in 10.0 mi Calm Calm - N/A   Clear
3:32 AM 44.6 °F - 41.9 °F 90% 30.13 in 10.0 mi Calm Calm - N/A   Clear
3:52 AM 43.7 °F - 41.0 °F 90% 30.13 in 7.0 mi Calm Calm - N/A   Clear
4:12 AM 43.2 °F 41.5 °F 40.8 °F 91% 30.13 in 7.0 mi SSW 3.5 mph - N/A   Clear
4:32 AM 43.7 °F 41.1 °F 41.4 °F 91% 30.14 in 7.0 mi SSW 4.6 mph - N/A   Clear
4:52 AM 43.5 °F 41.9 °F 41.2 °F 91% 30.14 in 7.0 mi South 3.5 mph - N/A   Clear
5:12 AM 43.0 °F - 40.6 °F 91% 30.13 in 5.0 mi Calm Calm - N/A   Clear
5:32 AM 41.9 °F - 39.9 °F 93% 30.13 in 2.5 mi Calm Calm - N/A   Clear
5:52 AM 41.2 °F - 39.2 °F 93% 30.14 in 5.0 mi Calm Calm - N/A   Clear
6:12 AM 41.7 °F 39.8 °F 39.7 °F 93% 30.15 in 4.0 mi South 3.5 mph - N/A   Clear
6:32 AM 42.4 °F - 40.5 °F 93% 30.15 in 5.0 mi Calm Calm - N/A   Clear
6:52 AM 43.9 °F - 41.9 °F 93% 30.16 in 5.0 mi Calm Calm - N/A   Clear
7:12 AM 45.9 °F - 43.9 °F 93% 30.17 in 10.0 mi Calm Calm - N/A   Clear
7:32 AM 47.8 °F - 45.3 °F 91% 30.18 in 10.0 mi Calm Calm - N/A   Clear
7:52 AM 50.9 °F - 46.0 °F 83% 30.18 in 10.0 mi Calm Calm - N/A   Clear
8:12 AM 52.9 °F - 45.3 °F 75% 30.18 in 10.0 mi NNE 6.9 mph - N/A   Clear
8:32 AM 54.5 °F - 45.7 °F 72% 30.18 in 10.0 mi NNE 5.8 mph - N/A   Clear
8:52 AM 55.4 °F - 45.5 °F 69% 30.18 in 10.0 mi NNE 6.9 mph - N/A   Clear
9:12 AM 55.8 °F - 45.1 °F 67% 30.19 in 10.0 mi NNE 5.8 mph - N/A   Clear
9:33 AM 56.7 °F - 45.3 °F 66% 30.19 in 10.0 mi Calm Calm - N/A   Clear
9:52 AM 57.6 °F - 45.3 °F 64% 30.19 in 10.0 mi Calm Calm - N/A   Clear
10:12 AM 58.1 °F - 45.1 °F 62% 30.20 in 10.0 mi North 3.5 mph - N/A   Scattered Clouds
10:33 AM 59.2 °F - 45.5 °F 60% 30.20 in 10.0 mi NW 5.8 mph - N/A   Scattered Clouds
10:52 AM 59.5 °F - 45.3 °F 59% 30.20 in 10.0 mi West 5.8 mph - N/A   Clear
11:12 AM 60.3 °F - 45.3 °F 58% 30.20 in 10.0 mi WNW 4.6 mph - N/A   Clear
11:33 AM 60.8 °F - 46.0 °F 58% 30.20 in 10.0 mi West 3.5 mph - N/A   Clear
11:52 AM 62.1 °F - 45.5 °F 55% 30.20 in 10.0 mi Calm Calm - N/A   Clear
12:12 PM 62.4 °F - 45.1 °F 53% 30.19 in 10.0 mi NNW 3.5 mph - N/A   Clear
12:32 PM 64.0 °F - 46.0 °F 52% 30.18 in 10.0 mi NNW 6.9 mph - N/A   Clear
12:52 PM 64.8 °F - 45.9 °F 50% 30.18 in 10.0 mi NNW 4.6 mph - N/A   Clear
1:12 PM 66.0 °F - 46.9 °F 50% 30.18 in 10.0 mi NW 8.1 mph - N/A   Clear
1:33 PM 66.4 °F - 45.7 °F 47% 30.17 in 10.0 mi NNW 10.4 mph - N/A   Scattered Clouds
1:52 PM 66.0 °F - 44.6 °F 46% 30.16 in 10.0 mi North 10.4 mph - N/A   Scattered Clouds
2:12 PM 67.3 °F - 43.7 °F 42% 30.16 in 10.0 mi NNW 9.2 mph - N/A   Scattered Clouds
2:32 PM 68.4 °F - 43.3 °F 40% 30.16 in 10.0 mi North 10.4 mph - N/A   Clear
2:52 PM 68.2 °F - 43.9 °F 41% 30.16 in 10.0 mi North 5.8 mph - N/A   Clear
3:12 PM 68.5 °F - 42.8 °F 39% 30.15 in 10.0 mi North 5.8 mph - N/A   Clear
4:12 PM 69.8 °F - 44.1 °F 39% 30.14 in 10.0 mi NNW 6.9 mph - N/A   Clear
4:32 PM 69.8 °F - 43.9 °F 39% 30.14 in 10.0 mi NNW 8.1 mph - N/A   Clear
4:52 PM 70.2 °F - 43.2 °F 38% 30.14 in 10.0 mi NW 11.5 mph 16.1 mph N/A   Clear
5:12 PM 70.2 °F - 42.6 °F 37% 30.14 in 10.0 mi NW 9.2 mph - N/A   Clear
5:32 PM 69.8 °F - 40.8 °F 35% 30.14 in 10.0 mi NNW 4.6 mph - N/A   Clear
5:52 PM 70.2 °F - 42.3 °F 36% 30.13 in 10.0 mi NNW 8.1 mph - N/A   Clear
6:12 PM 69.8 °F - 42.1 °F 37% 30.13 in 10.0 mi NNW 12.7 mph 17.3 mph N/A   Clear
6:32 PM 69.8 °F - 40.3 °F 34% 30.13 in 10.0 mi North 4.6 mph - N/A   Clear
6:52 PM 69.1 °F - 41.5 °F 37% 30.13 in 10.0 mi NNW 10.4 mph - N/A   Clear
7:12 PM 69.4 °F - 40.3 °F 35% 30.13 in 10.0 mi NNW 6.9 mph - N/A   Clear
7:32 PM 68.2 °F - 41.9 °F 38% 30.14 in 10.0 mi NNW 8.1 mph - N/A   Clear
7:52 PM 66.9 °F - 42.8 °F 42% 30.14 in 10.0 mi North 6.9 mph - N/A   Clear
8:12 PM 66.7 °F - 42.6 °F 42% 30.14 in 10.0 mi Calm Calm - N/A   Clear
8:32 PM 66.4 °F - 44.1 °F 44% 30.14 in 10.0 mi North 3.5 mph - N/A   Clear
8:53 PM 63.1 °F - 44.1 °F 50% 30.14 in 10.0 mi NE 3.5 mph - N/A   Clear
9:12 PM 60.8 °F - 45.3 °F 57% 30.15 in 10.0 mi Calm Calm - N/A   Clear
9:32 PM 59.9 °F - 45.3 °F 59% 30.15 in 10.0 mi Calm Calm - N/A   Clear
9:52 PM 57.7 °F - 46.2 °F 65% 30.16 in 10.0 mi Calm Calm - N/A   Clear
10:12 PM 55.9 °F - 45.7 °F 68% 30.17 in 10.0 mi Calm Calm - N/A   Clear
10:32 PM 55.0 °F - 45.0 °F 69% 30.17 in 10.0 mi Calm Calm - N/A   Clear
10:52 PM 53.4 °F - 45.7 °F 75% 30.18 in 10.0 mi Calm Calm - N/A   Clear
11:12 PM 53.1 °F - 45.7 °F 76% 30.18 in 10.0 mi Calm Calm - N/A   Clear
11:32 PM 50.5 °F - 44.6 °F 80% 30.18 in 10.0 mi Calm Calm - N/A   Clear
11:52 PM 50.0 °F - 44.8 °F 82% 30.18 in 10.0 mi Calm Calm - N/A   Clear